When you browse on this site, cookies collect data to enhance your experience and personalize the content and advertising you see.
Visit our Privacy Policy to learn more. By continuing to use the site, you agree to this use of cookies and data.
  • în România
  • Lista ţărilor
  • Pe 7 zile
  • Temperatura apei
  • Hartă satelitară
  • Meteo pe hartă
  • Widget-uri
  • user-avatar
    Intrare

    Meteo pe oră la New York

    Astăzi, 15 Decembrie, Sâmbătă

    Timp Temperatura Precipitaţii Vânt Presiune Umiditate
    00:00 +7°C° 0.3 mm 2 m/s 767 mmHg 98%
    01:00 +8°C° 0 mm 1 m/s 767 mmHg 97%
    02:00 +8°C° 0.7 mm 1 m/s 767 mmHg 97%
    03:00 +8°C° 0.7 mm 1 m/s 766 mmHg 97%
    04:00 +7°C° 0.7 mm 0 m/s 766 mmHg 97%
    05:00 +8°C° 0.1 mm 1 m/s 766 mmHg 97%
    06:00 +8°C° 0.1 mm 1 m/s 766 mmHg 97%
    07:00 +8°C° 0 mm 1 m/s 765 mmHg 97%
    08:00 +8°C° 0.1 mm 2 m/s 765 mmHg 97%
    09:00 +8°C° 0.1 mm 2 m/s 765 mmHg 96%
    10:00 +8°C° 0.1 mm 3 m/s 765 mmHg 96%
    11:00 +8°C° 0.1 mm 3 m/s 765 mmHg 93%
    12:00 +9°C° 0.1 mm 3 m/s 764 mmHg 90%
    13:00 +9°C° 0.1 mm 3 m/s 764 mmHg 87%
    14:00 +8°C° 0.1 mm 4 m/s 764 mmHg 84%
    15:00 +8°C° 0.1 mm 4 m/s 763 mmHg 81%
    16:00 +8°C° 0.1 mm 4 m/s 763 mmHg 79%
    17:00 +8°C° 0.1 mm 4 m/s 763 mmHg 75%
    18:00 +7°C° 0.1 mm 4 m/s 764 mmHg 71%
    19:00 +7°C° 0.1 mm 4 m/s 764 mmHg 67%
    20:00 +7°C° 0.3 mm 5 m/s 764 mmHg 68%
    21:00 +7°C° 0.3 mm 6 m/s 764 mmHg 69%
    22:00 +5°C° 0.3 mm 7 m/s 764 mmHg 70%
    23:00 +5°C° 0.1 mm 7 m/s 764 mmHg 67%

    Mâine, 16 Decembrie, Duminică

    Timp Temperatura Precipitaţii Vânt Presiune Umiditate
    00:00 +5°C° 0.1 mm 7 m/s 763 mmHg 63%
    01:00 +4°C° 0.1 mm 8 m/s 763 mmHg 60%
    02:00 +4°C° 1.6 mm 8 m/s 763 mmHg 67%
    03:00 +2°C° 1.6 mm 8 m/s 762 mmHg 74%
    04:00 +2°C° 1.6 mm 9 m/s 762 mmHg 81%
    05:00 +1°C° 5.4 mm 8 m/s 762 mmHg 83%
    06:00 +1°C° 5.4 mm 8 m/s 762 mmHg 84%
    07:00 +2°C° 5.4 mm 7 m/s 762 mmHg 85%
    08:00 +1°C° 1.4 mm 8 m/s 762 mmHg 84%
    09:00 +1°C° 1.4 mm 9 m/s 761 mmHg 83%
    10:00 +1°C° 1.4 mm 9 m/s 761 mmHg 81%
    11:00 +1°C° 1.2 mm 9 m/s 760 mmHg 82%
    12:00 +2°C° 1.2 mm 8 m/s 759 mmHg 83%
    13:00 +2°C° 1.2 mm 8 m/s 758 mmHg 85%
    14:00 +2°C° 1.7 mm 8 m/s 757 mmHg 85%
    15:00 +3°C° 1.7 mm 7 m/s 757 mmHg 85%
    16:00 +3°C° 1.7 mm 7 m/s 757 mmHg 85%
    17:00 +2°C° 1.3 mm 7 m/s 757 mmHg 85%
    18:00 +2°C° 1.3 mm 7 m/s 757 mmHg 84%
    19:00 +1°C° 1.3 mm 8 m/s 757 mmHg 84%
    20:00 +1°C° 1.1 mm 8 m/s 756 mmHg 84%
    21:00 +2°C° 1.1 mm 7 m/s 756 mmHg 83%
    22:00 +2°C° 1.1 mm 7 m/s 756 mmHg 83%
    23:00 +2°C° 0.1 mm 7 m/s 755 mmHg 83%

    Poimâine, 17 Decembrie, Luni

    Timp Temperatura Precipitaţii Vânt Presiune Umiditate
    00:00 +1°C° 0.1 mm 6 m/s 755 mmHg 83%
    01:00 +1°C° 0.1 mm 6 m/s 755 mmHg 83%
    02:00 +1°C° 0 mm 5 m/s 755 mmHg 82%
    03:00 +1°C° 0 mm 5 m/s 755 mmHg 82%
    04:00 +1°C° 0 mm 4 m/s 755 mmHg 81%
    05:00 +1°C° 0 mm 4 m/s 755 mmHg 82%
    06:00 +1°C° 0 mm 4 m/s 755 mmHg 83%
    07:00 0°C° 0 mm 4 m/s 755 mmHg 85%
    08:00 +1°C° 0 mm 4 m/s 755 mmHg 79%
    09:00 +3°C° 0 mm 4 m/s 755 mmHg 74%
    10:00 +4°C° 0 mm 4 m/s 755 mmHg 69%
    11:00 +3°C° 0 mm 5 m/s 754 mmHg 66%
    12:00 +4°C° 0 mm 6 m/s 754 mmHg 63%
    13:00 +5°C° 0 mm 6 m/s 753 mmHg 60%
    14:00 +4°C° 0 mm 7 m/s 753 mmHg 59%
    15:00 +4°C° 0 mm 8 m/s 753 mmHg 58%
    16:00 +2°C° 0 mm 8 m/s 753 mmHg 57%
    17:00 +1°C° 0 mm 9 m/s 754 mmHg 58%
    18:00 0°C° 0 mm 9 m/s 755 mmHg 59%
    19:00 -1°C° 0 mm 9 m/s 755 mmHg 60%
    20:00 -1°C° 0 mm 9 m/s 755 mmHg 60%
    21:00 -3°C° 0 mm 9 m/s 756 mmHg 60%
    22:00 -3°C° 0 mm 9 m/s 756 mmHg 60%
    23:00 -4°C° 0 mm 9 m/s 757 mmHg 59%

    18 Decembrie, Marţi

    Timp Temperatura Precipitaţii Vânt Presiune Umiditate
    00:00 -4°C° 0 mm 9 m/s 757 mmHg 58%
    01:00 -4°C° 0 mm 9 m/s 757 mmHg 58%
    02:00 -5°C° 0 mm 9 m/s 758 mmHg 57%
    03:00 -5°C° 0 mm 8 m/s 758 mmHg 56%
    04:00 -6°C° 0 mm 8 m/s 759 mmHg 55%
    05:00 -6°C° 0 mm 8 m/s 759 mmHg 55%
    06:00 -6°C° 0 mm 8 m/s 760 mmHg 55%
    07:00 -6°C° 0 mm 8 m/s 761 mmHg 55%
    08:00 -5°C° 0 mm 8 m/s 761 mmHg 53%
    09:00 -4°C° 0 mm 8 m/s 762 mmHg 52%
    10:00 -4°C° 0 mm 8 m/s 762 mmHg 50%
    11:00 -2°C° 0 mm 8 m/s 762 mmHg 48%
    12:00 -2°C° 0 mm 7 m/s 762 mmHg 47%
    13:00 -1°C° 0 mm 7 m/s 762 mmHg 45%
    14:00 -1°C° 0 mm 7 m/s 762 mmHg 47%
    15:00 -2°C° 0 mm 7 m/s 763 mmHg 49%
    16:00 -2°C° 0 mm 7 m/s 763 mmHg 50%
    17:00 -3°C° 0 mm 6 m/s 763 mmHg 52%
    18:00 -3°C° 0 mm 6 m/s 764 mmHg 54%
    19:00 -4°C° 0 mm 6 m/s 765 mmHg 56%
    20:00 -4°C° 0 mm 5 m/s 765 mmHg 57%
    21:00 -4°C° 0 mm 5 m/s 765 mmHg 57%
    22:00 -3°C° 0 mm 4 m/s 765 mmHg 58%
    23:00 -3°C° 0 mm 4 m/s 765 mmHg 58%

    19 Decembrie, Miercuri

    Timp Temperatura Precipitaţii Vânt Presiune Umiditate
    00:00 -3°C° 0 mm 4 m/s 765 mmHg 59%
    01:00 -3°C° 0 mm 4 m/s 765 mmHg 60%
    02:00 -3°C° 0 mm 4 m/s 765 mmHg 61%
    03:00 -3°C° 0 mm 4 m/s 765 mmHg 62%
    04:00 -3°C° 0 mm 4 m/s 765 mmHg 63%
    05:00 -2°C° 0 mm 3 m/s 765 mmHg 63%
    06:00 -2°C° 0 mm 3 m/s 765 mmHg 63%
    07:00 -2°C° 0 mm 3 m/s 765 mmHg 63%
    08:00 -1°C° 0 mm 3 m/s 765 mmHg 59%
    09:00 0°C° 0 mm 3 m/s 765 mmHg 55%
    10:00 +1°C° 0 mm 3 m/s 765 mmHg 52%
    11:00 +2°C° 0 mm 3 m/s 765 mmHg 49%
    12:00 +3°C° 0 mm 4 m/s 764 mmHg 46%
    13:00 +4°C° 0 mm 4 m/s 763 mmHg 44%
    14:00 +4°C° 0 mm 4 m/s 763 mmHg 47%
    15:00 +4°C° 0 mm 3 m/s 763 mmHg 50%
    16:00 +3°C° 0 mm 3 m/s 763 mmHg 53%
    17:00 +3°C° 0 mm 3 m/s 763 mmHg 57%
    18:00 +1°C° 0 mm 4 m/s 763 mmHg 61%
    19:00 +1°C° 0 mm 4 m/s 763 mmHg 65%
    20:00 +1°C° 0 mm 4 m/s 763 mmHg 70%
    21:00 0°C° 0 mm 4 m/s 763 mmHg 75%
    22:00 0°C° 0 mm 4 m/s 763 mmHg 80%
    23:00 0°C° 0 mm 4 m/s 763 mmHg 82%

    20 Decembrie, Joi

    Timp Temperatura Precipitaţii Vânt Presiune Umiditate
    00:00 -1°C° 0 mm 4 m/s 762 mmHg 84%
    01:00 0°C° 0 mm 3 m/s 762 mmHg 86%
    02:00 0°C° 0 mm 3 m/s 762 mmHg 87%
    03:00 0°C° 0 mm 3 m/s 762 mmHg 88%
    04:00 +1°C° 0 mm 2 m/s 762 mmHg 89%
    05:00 +1°C° 0 mm 2 m/s 762 mmHg 90%
    06:00 +1°C° 0 mm 2 m/s 762 mmHg 90%
    07:00 +1°C° 0 mm 2 m/s 763 mmHg 91%
    08:00 +2°C° 0 mm 2 m/s 763 mmHg 87%
    09:00 +3°C° 0 mm 2 m/s 763 mmHg 83%
    10:00 +4°C° 0 mm 2 m/s 763 mmHg 79%
    11:00 +5°C° 0 mm 2 m/s 762 mmHg 76%
    12:00 +6°C° 0 mm 2 m/s 762 mmHg 73%
    13:00 +7°C° 0 mm 2 m/s 761 mmHg 70%
    14:00 +7°C° 0 mm 2 m/s 761 mmHg 73%
    15:00 +8°C° 0 mm 1 m/s 761 mmHg 77%
    16:00 +7°C° 0 mm 1 m/s 761 mmHg 80%
    17:00 +6°C° 0.2 mm 2 m/s 760 mmHg 83%
    18:00 +6°C° 0.2 mm 2 m/s 760 mmHg 87%
    19:00 +5°C° 0.2 mm 3 m/s 760 mmHg 90%
    20:00 +6°C° 1 mm 4 m/s 759 mmHg 93%
    21:00 +7°C° 1 mm 4 m/s 758 mmHg 95%
    22:00 +7°C° 1 mm 5 m/s 758 mmHg 98%
    23:00 +8°C° 2.8 mm 5 m/s 757 mmHg 98%
    Arată mai mult